| time (UTC) | temp F | wind direction | speed MPH | gust MPH | rain 1hr in | rain 24hr in | rain mn in | humidity % | barometer mb |
| 20260502181524 | 51 | 202 | 1.0 | 5.0 | 0.01 | 0.09 | 0.09 | 92 | 1008.9 |
| 20260502163017 | 52 | 171 | 2.0 | 5.0 | 0.08 | 0.08 | 0.08 | 86 | 1009.6 |
| 20260502161512 | 54 | 229 | 2.0 | 4.0 | 0.06 | 0.06 | 0.06 | 80 | 1009.4 |
| 20260502151514 | 60 | 193 | 4.0 | 10.0 | 0.00 | 0.00 | 0.00 | 57 | 1009.5 |
| 20260502130104 | 63 | 189 | 8.0 | 14.0 | 0.00 | 0.00 | 0.00 | 49 | 1010.2 |
| 20260502123057 | 63 | 242 | 9.0 | 15.0 | 0.00 | 0.00 | 0.00 | 45 | 1010.4 |
| 20260502121555 | 64 | 213 | 7.0 | 14.0 | 0.00 | 0.00 | 0.00 | 44 | 1010.5 |
| 20260502114556 | 65 | 191 | 8.0 | 17.0 | 0.00 | 0.00 | 0.00 | 46 | 1010.7 |
| 20260502113052 | 65 | 183 | 8.0 | 15.0 | 0.00 | 0.00 | 0.00 | 47 | 1011.0 |
| 20260502111548 | 64 | 236 | 9.0 | 16.0 | 0.00 | 0.00 | 0.00 | 46 | 1011.2 |
| 20260502110046 | 64 | 224 | 8.0 | 18.0 | 0.00 | 0.00 | 0.00 | 48 | 1011.5 |
| 20260502104542 | 63 | 235 | 9.0 | 18.0 | 0.00 | 0.00 | 0.00 | 49 | 1011.5 |
| 20260502103038 | 62 | 227 | 8.0 | 16.0 | 0.00 | 0.00 | 0.00 | 51 | 1011.6 |
| 20260502101543 | 62 | 162 | 12.0 | 20.0 | 0.00 | 0.00 | 0.00 | 49 | 1011.6 |
| 20260502091530 | 60 | 208 | 9.0 | 19.0 | 0.00 | 0.00 | 0.00 | 53 | 1011.8 |
| 20260502071503 | 54 | 241 | 8.0 | 15.0 | 0.00 | 0.00 | 0.00 | 59 | 1013.2 |
| 20260502064601 | 52 | 237 | 7.0 | 11.0 | 0.00 | 0.00 | 0.00 | 67 | 1013.5 |
| 20260502063052 | 51 | 185 | 5.0 | 11.0 | 0.00 | 0.00 | 0.00 | 69 | 1013.6 |
| 20260502061550 | 50 | 226 | 4.0 | 12.0 | 0.00 | 0.00 | 0.00 | 72 | 1013.7 |
| 20260502060049 | 49 | 219 | 6.0 | 12.0 | 0.00 | 0.00 | 0.00 | 73 | 1013.8 |
| 20260502054555 | 48 | 180 | 5.0 | 12.0 | 0.00 | 0.00 | 0.00 | 74 | 1013.9 |
| 20260502053047 | 48 | 192 | 5.0 | 12.0 | 0.00 | 0.00 | 0.00 | 74 | 1013.9 |
| 20260502051544 | 47 | 204 | 7.0 | 12.0 | 0.00 | 0.00 | 0.00 | 74 | 1014.0 |
| 20260502050044 | 46 | 215 | 6.0 | 10.0 | 0.00 | 0.00 | 0.00 | 76 | 1014.0 |
| 20260502044542 | 45 | 209 | 3.0 | 8.0 | 0.00 | 0.00 | 0.00 | 77 | 1014.1 |
| 20260502043046 | 45 | 222 | 3.0 | 6.0 | 0.00 | 0.00 | 0.00 | 77 | 1014.1 |
| 20260502041540 | 45 | 202 | 3.0 | 6.0 | 0.00 | 0.00 | 0.00 | 77 | 1014.2 |
| 20260502040051 | 45 | 223 | 3.0 | 9.0 | 0.00 | 0.00 | 0.00 | 78 | 1014.4 |
| 20260502034536 | 45 | 207 | 4.0 | 8.0 | 0.00 | 0.00 | 0.00 | 79 | 1014.6 |
| 20260502033033 | 44 | 183 | 4.0 | 10.0 | 0.00 | 0.00 | 0.00 | 80 | 1014.8 |
| 20260502031534 | 44 | 235 | 2.0 | 5.0 | 0.00 | 0.00 | 0.00 | 80 | 1014.9 |
| 20260502030029 | 45 | 237 | 3.0 | 6.0 | 0.00 | 0.00 | 0.00 | 79 | 1015.0 |
| 20260502024526 | 45 | 209 | 2.0 | 8.0 | 0.00 | 0.00 | 0.00 | 79 | 1015.2 |
| 20260502023023 | 46 | 190 | 3.0 | 9.0 | 0.00 | 0.00 | 0.00 | 79 | 1015.4 |
| 20260502021520 | 46 | 203 | 5.0 | 10.0 | 0.00 | 0.00 | 0.00 | 78 | 1015.6 |
| 20260502020019 | 46 | 245 | 6.0 | 10.0 | 0.00 | 0.00 | 0.00 | 77 | 1015.8 |
| 20260502014535 | 46 | 226 | 4.0 | 11.0 | 0.00 | 0.00 | 0.00 | 77 | 1015.9 |
| 20260502013014 | 46 | 194 | 5.0 | 14.0 | 0.00 | 0.00 | 0.00 | 78 | 1016.1 |
| 20260502011511 | 46 | 210 | 5.0 | 10.0 | 0.00 | 0.00 | 0.00 | 78 | 1016.2 |
| 20260502010009 | 46 | 203 | 5.0 | 8.0 | 0.00 | 0.00 | 0.00 | 78 | 1016.3 |
| 20260502004508 | 46 | 171 | 4.0 | 8.0 | 0.00 | 0.00 | 0.00 | 78 | 1016.4 |
| 20260502003004 | 47 | 220 | 3.0 | 7.0 | 0.00 | 0.00 | 0.00 | 77 | 1016.5 |
| 20260502001502 | 47 | 242 | 5.0 | 10.0 | 0.00 | 0.00 | 0.00 | 77 | 1016.6 |
| 20260502000059 | 47 | 200 | 5.0 | 10.0 | 0.00 | 0.00 | 0.00 | 77 | 1016.6 |
| 20260501234557 | 47 | 205 | 3.0 | 9.0 | 0.00 | 0.00 | 0.00 | 77 | 1016.8 |
| 20260501233057 | 48 | 240 | 5.0 | 8.0 | 0.00 | 0.00 | 0.00 | 76 | 1016.9 |
| 20260501231552 | 48 | 192 | 4.0 | 8.0 | 0.00 | 0.00 | 0.00 | 75 | 1017.1 |
| 20260501230051 | 48 | 166 | 4.0 | 6.0 | 0.00 | 0.00 | 0.00 | 74 | 1017.1 |
| 20260501224557 | 49 | 198 | 6.0 | 10.0 | 0.00 | 0.00 | 0.00 | 73 | 1017.0 |
| 20260501223046 | 49 | 188 | 5.0 | 10.0 | 0.00 | 0.00 | 0.00 | 72 | 1017.1 |
| 20260501221546 | 49 | 193 | 5.0 | 10.0 | 0.00 | 0.00 | 0.00 | 70 | 1017.2 |
| 20260501220047 | 49 | 162 | 5.0 | 10.0 | 0.00 | 0.00 | 0.00 | 70 | 1017.3 |
| 20260501214541 | 50 | 189 | 5.0 | 9.0 | 0.00 | 0.00 | 0.00 | 69 | 1017.3 |
| 20260501213044 | 50 | 205 | 5.0 | 10.0 | 0.00 | 0.00 | 0.00 | 68 | 1017.4 |
| 20260501211538 | 51 | 196 | 2.0 | 6.0 | 0.00 | 0.00 | 0.00 | 66 | 1017.7 |
| 20260501210051 | 51 | 164 | 4.0 | 10.0 | 0.00 | 0.00 | 0.00 | 65 | 1017.7 |
| 20260501204536 | 52 | 182 | 4.0 | 7.0 | 0.00 | 0.00 | 0.00 | 64 | 1017.9 |
| 20260501203039 | 52 | 178 | 3.0 | 7.0 | 0.00 | 0.00 | 0.00 | 63 | 1018.1 |
| 20260501201535 | 52 | 187 | 3.0 | 7.0 | 0.00 | 0.00 | 0.00 | 63 | 1018.1 |
| 20260501200034 | 53 | 196 | 3.0 | 8.0 | 0.00 | 0.00 | 0.00 | 62 | 1018.3 |
| 20260501194534 | 53 | 192 | 4.0 | 6.0 | 0.00 | 0.00 | 0.00 | 62 | 1018.3 |
| 20260501193032 | 54 | 207 | 3.0 | 10.0 | 0.00 | 0.00 | 0.00 | 62 | 1018.3 |
| 20260501191532 | 55 | 188 | 6.0 | 11.0 | 0.00 | 0.00 | 0.00 | 61 | 1018.2 |
| 20260501190036 | 55 | 179 | 5.0 | 11.0 | 0.00 | 0.00 | 0.00 | 60 | 1018.3 |
| 20260501184531 | 56 | 221 | 6.0 | 18.0 | 0.00 | 0.00 | 0.00 | 59 | 1018.2 |
| 20260501183031 | 57 | 227 | 5.0 | 14.0 | 0.00 | 0.00 | 0.00 | 58 | 1018.2 |